This is the latest recevied weather packets stored in our database for station/object K0SNA. If no packets are shown the sender has not sent any weather packets the latest 10 day(s).
| Time | Temp. | Humidity | Pressure | Rain* | Wind** | Luminosity | Snow |
|---|---|---|---|---|---|---|---|
| 1777674237 | 12.78° C | 32% | 1018.3 hPa | 0 mm | - | 286 W/m² | - |
| 1777673933 | 12.22° C | 33% | 1018.4 hPa | 0 mm | - | 432 W/m² | - |
| 1777673630 | 12.22° C | 32% | 1018.6 hPa | 0 mm | - | 419 W/m² | - |
| 1777673328 | 12.22° C | 31% | 1018.5 hPa | 0 mm | - | 420 W/m² | - |
| 1777673025 | 12.22° C | 33% | 1018.6 hPa | 0 mm | - | 421 W/m² | - |
| 1777672721 | 12.22° C | 31% | 1018.5 hPa | 0 mm | - | 424 W/m² | - |
| 1777672418 | 11.67° C | 31% | 1018.7 hPa | 0 mm | - | 424 W/m² | - |
| 1777672113 | 11.11° C | 32% | 1018.6 hPa | 0 mm | - | 443 W/m² | - |
| 1777671808 | 11.11° C | 34% | 1018.4 hPa | 0 mm | - | 494 W/m² | - |
| 1777671505 | 10.56° C | 35% | 1018.6 hPa | 0 mm | - | 132 W/m² | - |
| 1777671201 | 10.56° C | 34% | 1018.7 hPa | 0 mm | - | 146 W/m² | - |
| 1777670897 | 10.56° C | 34% | 1018.7 hPa | 0 mm | - | 138 W/m² | - |
| 1777670594 | 11.11° C | 34% | 1018.6 hPa | 0 mm | - | 147 W/m² | - |
| 1777670291 | 11.67° C | 33% | 1018.7 hPa | 0 mm | - | 161 W/m² | - |
| 1777669988 | 11.67° C | 33% | 1018.8 hPa | 0 mm | - | 599 W/m² | - |
| 1777669685 | 11.67° C | 33% | 1018.5 hPa | 0 mm | - | 591 W/m² | - |
| 1777669382 | 10.56° C | 35% | 1018.8 hPa | 0 mm | - | 560 W/m² | - |
| 1777669078 | 10.56° C | 35% | 1018.7 hPa | 0 mm | - | 135 W/m² | - |
| 1777668775 | 10.56° C | 34% | 1018.8 hPa | 0 mm | - | 137 W/m² | - |
| 1777668472 | 11.11° C | 36% | 1018.8 hPa | 0 mm | - | 174 W/m² | - |
| 1777668169 | 10.56° C | 36% | 1018.9 hPa | 0 mm | - | 202 W/m² | - |
| 1777667865 | 10.56° C | 35% | 1018.9 hPa | 0 mm | - | 191 W/m² | - |
| 1777667563 | 10.56° C | 34% | 1019.1 hPa | 0 mm | - | 165 W/m² | - |
| 1777667259 | 11.11° C | 33% | 1019.1 hPa | 0 mm | - | 171 W/m² | - |
| 1777666956 | 11.11° C | 34% | 1018.9 hPa | 0 mm | - | 183 W/m² | - |
* Rain latest hour (hover to see other rain measurements)
** Current wind speed in m/s (hover to see current wind gust speed)